Weather History for Havre, MT

Change the Weather History Date:

Friday, November 30, 2012

  Actual Average Record
Temperature  
Mean Temperature 26 °F 24 °F  
Max Temperature 33 °F 34 °F 64 °F (1890)
Min Temperature 19 °F 13 °F -30 °F (1896)
Degree Days  
Heating Degree Days 39 41  
Month to date heating degree days 1060 1044  
Since 1 July heating degree days 1987 2043  
Cooling Degree Days 0 0  
Month to date cooling degree days 0 0  
Year to date cooling degree days 507 387  
Moisture  
Dew Point 23 °F    
Average Humidity 87    
Maximum Humidity 96    
Minimum Humidity 78    
Precipitation  
Precipitation 0.03 in 0.01 in 0.46 in (1897)
Month to date precipitation 0.93 0.43  
Year to date precipitation 12.42 10.80  
Snow  
Snow 0.00 in 0.20 in 4.60 in (1897)
Month to date snowfall 16.5 5.3  
Since 1 July snowfall 18.0 7.6  
Since 1 September snowfall 18.0 7.6  
Snow Depth 1.00 in    
Sea Level Pressure  
Sea Level Pressure 29.71 in    
Wind  
Wind Speed 5 mph (North)    
Max Wind Speed 15 mph    
Max Gust Speed 17 mph    
Visibility 7 miles    
Events Rain    
T = Trace of Precipitation, MM = Missing Value Source: NWS Daily Summary

Daily Weather History Graph

Daily Weather History Graph

Search for Another Location

Airport:

Trip Planner

Search our weather history database for the weather conditions in past years. The results will help you decide how hot, cold, wet, or windy it might be!

Date:

Astronomy

Nov. 30, 2012 Rise Set
Actual Time 7:49 AM MST 4:26 PM MST
Civil Twilight 7:13 AM MST 5:02 PM MST
Nautical Twilight 6:34 AM MST 5:41 PM MST
Astronomical Twilight 5:56 AM MST 6:19 PM MST
Moon 6:25 PM MST (11/30) 9:23 AM MST (11/30)
Length of Visible Light 9h 48m
Length of Day
8h 36m
Waning Gibbous, 96% of the Moon is Illuminated
Nov 30
Waning Gibbous
Dec 6
Last Quarter
Dec 13
New
Dec 19
First Quarter
Dec 28
Full

Hourly Weather History & Observations

Time (MST) Temp. Windchill Dew Point Humidity Pressure Visibility Wind Dir Wind Speed Gust Speed Precip Events Conditions
12:53 AM 24.1 °F 14.4 °F 21.9 °F 91% 29.81 in 6.0 mi East 9.2 mph - N/A   Scattered Clouds
1:53 AM 23.0 °F 18.4 °F 21.0 °F 92% 29.80 in 6.0 mi NE 3.5 mph - N/A   Clear
2:53 AM 21.9 °F 17.2 °F 19.9 °F 92% 29.82 in 6.0 mi ENE 3.5 mph - N/A   Clear
3:53 AM 19.9 °F - 18.0 °F 92% 29.78 in 5.0 mi Calm Calm - N/A   Clear
4:53 AM 21.9 °F - 19.9 °F 92% 29.76 in 6.0 mi Calm Calm - N/A   Clear
5:53 AM 21.9 °F 13.4 °F 19.0 °F 89% 29.75 in 7.0 mi East 6.9 mph - N/A   Clear
6:53 AM 23.0 °F 18.4 °F 19.9 °F 88% 29.74 in 7.0 mi NE 3.5 mph - N/A   Scattered Clouds
7:53 AM 23.0 °F 17.0 °F 21.0 °F 92% 29.72 in 7.0 mi East 4.6 mph - N/A   Scattered Clouds
8:53 AM 24.1 °F 16.0 °F 21.0 °F 88% 29.71 in 6.0 mi East 6.9 mph - N/A   Clear
9:53 AM 25.0 °F 18.1 °F 21.9 °F 88% 29.70 in 7.0 mi East 5.8 mph - N/A   Partly Cloudy
10:53 AM 28.0 °F - 24.1 °F 85% 29.66 in 8.0 mi Calm Calm - N/A   Mostly Cloudy
11:53 AM 28.9 °F - 25.0 °F 85% 29.64 in 9.0 mi Calm Calm - N/A   Partly Cloudy
12:53 PM 30.9 °F - 26.1 °F 82% 29.62 in 9.0 mi Calm Calm - N/A   Overcast
1:53 PM 32.0 °F - 27.0 °F 82% 29.61 in 8.0 mi Calm Calm - N/A   Overcast
2:53 PM 32.0 °F 28.7 °F 28.9 °F 88% 29.62 in 7.0 mi ESE 3.5 mph - 0.00 in   Overcast
3:53 PM 33.1 °F - 30.9 °F 92% 29.63 in 5.0 mi Calm Calm - 0.03 in Rain Light Rain
4:53 PM 32.0 °F 22.5 °F 30.0 °F 92% 29.64 in 5.0 mi NW 12.7 mph 17.3 mph 0.00 in   Clear
5:53 PM 33.1 °F 26.9 °F 30.0 °F 89% 29.67 in 10.0 mi West 6.9 mph - N/A   Partly Cloudy
6:42 PM 32.0 °F 24.2 °F 28.4 °F 87% 29.61 in 10.0 mi WNW 9.2 mph - N/A   Scattered Clouds
6:53 PM 30.0 °F 21.1 °F 27.0 °F 88% 29.71 in 10.0 mi NW 10.4 mph - N/A   Partly Cloudy
7:53 PM 24.1 °F 16.0 °F 21.0 °F 88% 29.76 in 7.0 mi West 6.9 mph - N/A   Scattered Clouds
8:40 PM 23.0 °F 12.4 °F 19.4 °F 86% 29.67 in 8.0 mi WNW 10.4 mph - N/A   Mostly Cloudy
8:53 PM 23.0 °F 13.9 °F 19.9 °F 88% 29.77 in 8.0 mi WNW 8.1 mph - N/A   Overcast
9:53 PM 21.9 °F 11.7 °F 19.9 °F 92% 29.79 in 7.0 mi WNW 9.2 mph - N/A   Overcast
10:53 PM 21.0 °F 11.4 °F 19.0 °F 92% 29.79 in 7.0 mi NW 8.1 mph - N/A   Overcast
11:53 PM 19.9 °F 12.1 °F 18.0 °F 92% 29.81 in 6.0 mi NW 5.8 mph - N/A   Overcast